STARLINK-1465, 45731

Orbit data source: Space-Track

STARLINK-1465, 45731 is a payload satellite owned by SpaceX/Seattle (US) in LEO that was launched on Sat, 13 Jun 2020 UTC via an FALCON 9 launch vehicle from the Air Force Eastern Test Range (AFETR). Payload-class satellites include a variety of spacecraft equipped with specific instruments for various scientific and technological missions. These include communications satellites like Starlink; space stations such as the ISS; scientific satellites like the Hubble; Earth observation satellites from companies like Planet Labs, Umbra, and HawkEye 360; GPS; miniature CubeSats for education and research; and military/defense satellites.

Loading next visibility...
Identifier
45731, 2020-038B
Orbit
LEO
Country
Flag of USUS
Related business
Manufacturer
SpaceX/Seattle
Mission
Partially operational Commercial Communications
Bus & Motor
STARLINK, Unknown motor
Mass
260 kg wet, ~248 kg dry
Launch date (UTC)
2020-06-13 (6 years ago)
Launch vehicle
FALCON 9
Launch site
Air Force Eastern Test Range (AFETR)
Object type
Payload
Rocket body
Debris
Shape & HBR
Box + 1 Pan, 10.1 m
Radar Cross Section
13.562 m², Large (>1 m²)

Expand to show TLE details & history
Last TLE update: 9 hours ago

TLE from 9 hours ago
0 STARLINK-1465
1 45731U 20038B   26123.93907885  .00092064  00000-0  11607-2 0  9994
2 45731  53.0477 316.2741 0003130 157.0127 203.1026 15.58864479324978
Epoch: 2026-05-03T22:32Z
TLE epoch observation values (Epoch: 2026-05-03T22:32:16.412Z)
Latitude
0.00002°
Longitude
116.3703°
Altitude
393.79 km
Speed
7.674 km/s
True Right ascension
21h 05m 05s
True Declination
0° 00' 00"
Sunlit
Object was in daylight at epoch
Visualization orbit readout
Latitude
Unknown
Longitude
Unknown
Altitude
Unknown
Speed
Unknown
Apparent Right ascension
Unknown
Apparent Declination
Unknown
Sunlit
N/A
Visualization observer readout
Local Sidereal Time
15:04:52
Azimuth
Unknown
Elevation
Unknown
Doppler factor
Unknown
Orbital elements
Apogee altitude
393.339 km
Perigee altitude
389.101 km
Semi-major axis
6,769.357 km
Eccentricity
0.00031
Inclination
53.0477°
RAAN
316.2741°
Arg. of periapsis
157.0127°
True anomaly
203.08853°
Mean anomaly
203.1026°
Eccentric anomaly
203.09557°
Mean motion
3.89692 °/min
Orbital period
92.38 mins
BSTAR
0.0011607
Loading maneuver chart data...
Computing Atmospheric mass density...

Documentation

Showing up to 5 results
|